Wind_Speed
23 23 22 22 22 21 21 21 21 22 24 25 26 27 28 30 32 34 36 38 39 41 42 42 42 42 41 40 38 37 34 32 29 30 33 35 36 35 33 32 30 28 26
20 21 21 21 20 20 19 19 19 20 20 21 22 23 25 26 27 29 32 34 37 39 40 41 42 42 42 42 41 39 37 35 33 31 32 34 36 37 35 34 33 31 29
19 20 20 20 20 20 19 19 18 18 17 17 18 19 21 23 25 26 28 31 33 36 38 40 42 42 42 42 42 42 40 38 36 33 33 33 34 36 37 36 35 34 32
19 20 20 21 21 20 19 19 18 17 17 16 16 16 17 19 21 23 25 27 29 31 34 37 40 41 42 42 41 41 41 41 39 36 34 33 32 34 36 38 37 36 35
19 20 20 20 20 21 20 20 19 18 17 16 15 15 16 17 18 20 22 24 26 28 30 33 36 39 41 41 41 41 41 42 41 39 37 35 34 33 36 37 37 37 37
19 20 21 21 21 21 21 21 20 18 17 16 15 14 15 15 16 17 18 21 23 26 28 30 32 35 38 40 41 41 42 42 42 41 40 39 38 36 36 36 37 38 38
20 21 21 21 21 22 22 21 20 19 19 18 16 15 15 14 14 13 14 16 18 21 23 25 28 31 34 36 39 41 41 43 43 42 42 42 41 39 38 38 37 37 38
20 21 21 21 22 22 23 22 21 20 19 18 17 17 16 14 13 13 13 13 14 16 18 21 24 26 29 32 35 38 41 43 44 43 43 43 42 41 40 39 38 37 38
20 21 21 21 22 23 23 22 21 21 20 20 19 18 17 16 14 13 12 11 11 12 15 17 20 23 26 29 32 36 39 42 44 44 43 45 44 44 42 41 40 39 39
19 20 21 21 22 23 23 23 22 21 21 21 20 20 19 17 16 14 13 12 10 10 12 14 17 20 22 25 29 33 36 39 42 43 43 43 44 45 45 44 43 41 41
18 19 20 21 22 23 23 22 22 22 21 21 21 21 20 19 17 16 15 13 12 10 10 12 14 17 19 22 25 29 33 36 39 41 42 42 42 44 44 45 44 42 43
18 19 20 21 22 23 23 23 23 23 22 22 22 22 21 19 18 17 16 15 14 12 11 10 11 13 16 18 22 26 29 32 36 39 41 41 41 42 44 43 42 42 43
19 19 19 20 21 22 23 24 24 23 23 23 23 23 22 20 19 19 18 17 15 13 12 11 11 11 13 15 18 21 26 29 31 34 36 38 40 40 41 42 42 41 42
18 19 19 20 21 22 23 24 24 25 25 24 24 24 23 22 21 20 19 18 17 16 14 13 12 11 11 12 14 17 20 24 28 29 31 33 37 38 38 39 40 40 40
18 18 19 20 20 21 22 23 24 25 25 25 25 25 24 24 23 22 21 20 19 18 17 15 14 13 12 12 13 15 18 21 25 27 28 30 31 33 35 36 37 39 40
17 18 19 19 20 21 22 22 23 24 25 26 26 26 25 25 24 23 23 22 21 20 19 17 15 14 13 12 12 14 16 19 21 24 25 27 28 28 30 32 33 35 37
18 18 19 19 20 21 21 22 23 24 25 26 26 26 26 25 25 25 24 24 23 22 21 19 17 15 14 13 12 11 13 16 18 20 22 25 27 27 29 29 29 31 33
17 18 18 19 20 20 21 22 23 24 25 26 26 26 26 26 26 26 26 25 25 24 23 22 20 17 15 12 11 10 10 13 15 18 19 21 24 25 25 26 26 27 28
17 17 18 18 19 20 21 21 22 23 24 25 26 26 27 27 27 27 27 27 26 25 25 23 22 19 16 13 11 8 7 9 12 15 17 19 21 22 22 22 22 23 24
16 17 17 18 19 19 20 21 22 22 24 25 25 26 27 27 28 28 28 28 28 27 26 25 23 21 18 14 11 8 6 6 8 11 14 16 18 19 19 20 21 21 22
16 17 18 18 18 19 20 21 21 22 23 24 25 26 26 27 28 28 28 29 29 28 28 26 24 22 19 16 12 8 5 3 4 7 10 12 14 16 17 18 19 20 21
17 18 18 19 19 19 20 20 21 22 23 23 24 25 26 26 27 28 28 29 29 29 28 27 25 23 21 18 14 11 7 4 1 4 6 9 11 14 16 17 18 19 20
19 19 19 19 20 20 20 21 21 22 22 23 23 24 25 25 26 26 27 28 29 29 28 27 25 23 21 19 16 12 9 6 3 2 5 7 10 12 14 15 16 18 19
21 21 21 21 21 21 21 21 22 22 22 23 23 24 24 24 25 25 26 26 27 28 27 26 26 24 22 20 17 15 12 9 7 5 6 7 10 12 13 14 15 17 17
23 23 23 23 23 23 23 23 22 22 22 23 23 23 23 23 24 24 24 24 25 26 26 25 25 23 22 20 19 17 14 11 9 8 7 7 9 11 12 13 15 16 16
26 26 25 25 25 25 25 24 24 23 23 23 23 23 23 23 23 23 23 23 23 23 24 23 22 22 21 19 18 17 15 12 10 9 8 8 9 11 12 12 13 14 14
Wind_Direction
328 327 326 323 321 317 311 306 301 297 290 282 277 273 270 267 262 257 252 249 247 246 245 245 246 246 246 246 245 245 246 246 245 243 239 237 235 234 235 235 235 234 233
338 338 337 335 333 329 323 318 313 309 301 291 284 278 274 270 266 260 255 251 248 246 244 243 243 244 244 244 244 243 243 243 245 244 240 238 236 234 234 235 235 235 235
343 344 345 345 342 339 336 330 324 321 315 305 296 288 281 276 271 265 259 254 250 247 245 243 242 243 243 243 243 242 241 239 241 242 240 237 235 233 232 233 234 235 235
351 351 351 351 351 349 345 340 335 329 325 319 310 300 292 284 278 271 263 256 251 248 246 243 241 241 241 241 241 240 238 237 237 238 239 236 236 232 231 232 234 234 234
359 358 357 357 357 357 355 352 348 343 336 329 322 312 303 295 286 278 269 260 254 249 247 245 243 241 241 239 239 238 236 235 234 234 235 234 234 233 231 231 232 233 234
2 2 1 1 0 359 359 358 357 354 349 343 336 329 319 309 299 288 278 268 259 252 248 246 244 242 241 240 239 237 235 233 233 232 232 232 233 234 231 230 233 234 234
6 6 6 6 5 4 3 2 2 1 358 355 351 344 337 330 318 305 293 280 266 258 252 248 245 243 242 240 239 237 235 233 231 230 230 230 231 231 231 231 233 233 233
7 8 9 10 9 8 7 7 7 6 5 4 2 358 352 346 337 325 311 293 277 265 257 252 248 245 243 242 239 236 234 232 231 230 230 229 230 230 231 231 232 233 233
9 10 12 12 12 11 11 11 10 10 10 9 7 4 1 358 352 345 337 315 288 274 265 259 253 248 246 245 241 236 234 232 231 230 231 231 230 230 230 230 232 232 233
9 11 13 13 13 13 13 13 13 13 12 12 11 8 5 3 0 356 350 343 321 296 280 269 260 253 250 248 243 238 235 233 231 232 232 232 232 231 230 231 231 232 232
11 13 14 15 15 15 15 15 15 14 12 11 9 9 8 7 6 3 359 351 339 321 302 287 272 261 255 251 245 239 236 234 232 232 232 232 232 232 230 230 230 231 231
15 16 17 17 17 17 18 18 18 16 15 13 11 10 10 9 8 5 2 358 352 340 322 305 290 273 260 254 247 241 237 235 234 233 233 234 232 232 232 232 230 230 229
17 18 18 18 19 20 20 21 20 19 18 16 14 13 12 11 9 7 5 1 357 350 339 326 315 296 276 261 253 245 240 237 236 236 236 235 232 232 231 233 233 231 228
17 19 20 20 20 20 21 21 21 20 19 18 17 15 14 12 10 8 5 2 359 354 346 335 323 308 291 275 263 251 242 237 235 234 236 235 236 235 234 233 232 231 229
16 18 19 19 20 20 20 21 20 19 19 19 18 16 14 13 12 9 6 3 360 356 350 343 333 321 306 289 273 259 248 240 237 234 234 234 234 235 234 232 231 231 229
13 14 15 16 17 18 19 19 18 18 17 17 17 16 16 15 13 11 8 6 2 359 354 349 341 331 318 302 284 267 255 246 241 238 235 232 230 231 229 227 227 227 227
11 12 13 14 15 15 16 16 16 15 15 15 15 15 15 14 13 12 10 8 5 2 359 354 347 337 326 311 295 278 259 249 243 240 236 235 233 231 226 224 224 224 224
8 9 11 11 12 12 13 13 13 13 14 14 14 14 14 13 12 11 10 9 7 4 1 357 353 346 338 326 309 289 267 251 243 238 235 233 232 229 228 225 223 220 220
0 2 4 5 6 7 8 9 10 10 11 12 12 12 13 12 12 12 11 10 8 7 4 2 360 355 349 340 327 306 278 255 243 237 233 230 229 224 222 221 221 220 220
351 353 355 357 359 360 1 2 4 5 7 8 9 10 11 11 11 12 11 11 10 9 7 6 5 3 0 356 346 333 304 267 245 237 231 227 228 223 219 219 219 217 218
337 341 344 347 349 351 353 355 357 359 1 3 5 6 8 9 10 10 11 12 11 11 11 10 10 11 11 10 6 359 345 302 254 237 229 223 221 217 214 212 210 208 208
327 330 333 336 339 342 344 346 349 352 354 357 359 2 3 5 7 9 10 12 12 12 12 14 15 16 18 19 18 18 15 5 293 221 208 207 207 204 203 203 203 201 202
320 323 325 327 330 332 334 337 341 344 347 350 353 356 358 0 3 5 8 10 11 12 14 16 18 20 22 23 23 25 28 32 48 135 169 180 184 186 188 191 194 196 198
313 315 318 320 322 324 326 329 332 336 339 342 345 348 351 354 357 360 2 5 8 11 14 17 19 21 23 26 28 31 36 45 59 94 133 150 162 172 179 184 187 189 191
307 309 311 313 315 317 319 321 324 327 330 333 337 340 343 347 349 353 356 359 3 7 10 14 17 20 23 26 29 33 38 48 63 83 111 133 146 157 166 174 180 183 188
304 305 307 308 309 311 312 314 317 319 321 324 327 331 335 338 342 345 349 353 356 1 4 9 13 17 21 25 29 34 40 49 64 82 100 118 138 150 159 165 171 176 181
Height
5835 5830 5826 5822 5818 5814 5811 5808 5805 5803 5801 5799 5798 5798 5798 5798 5799 5801 5803 5805 5808 5811 5814 5817 5820 5824 5828 5832 5835 5839 5842 5846 5848 5852 5855 5859 5862 5866 5870 5874 5877 5880 5883
5832 5828 5824 5819 5815 5811 5807 5804 5801 5798 5795 5793 5791 5791 5790 5790 5790 5791 5793 5795 5797 5800 5804 5807 5810 5814 5818 5822 5826 5830 5834 5837 5841 5844 5847 5850 5855 5859 5863 5867 5871 5874 5877
5831 5827 5822 5817 5813 5808 5804 5800 5797 5794 5791 5788 5786 5785 5784 5783 5783 5783 5784 5786 5788 5790 5793 5797 5800 5804 5807 5812 5815 5820 5824 5828 5832 5836 5839 5843 5847 5850 5855 5859 5863 5867 5871
5830 5825 5821 5816 5811 5807 5802 5798 5794 5791 5788 5785 5782 5780 5778 5777 5776 5776 5776 5777 5779 5781 5783 5786 5790 5793 5797 5801 5805 5809 5814 5819 5823 5827 5831 5835 5839 5842 5847 5851 5855 5859 5863
5829 5825 5820 5815 5810 5806 5801 5797 5793 5789 5785 5782 5779 5776 5774 5772 5771 5770 5769 5769 5771 5772 5774 5777 5780 5783 5787 5791 5795 5799 5804 5809 5814 5818 5822 5826 5830 5834 5839 5843 5847 5852 5856
5829 5824 5820 5815 5810 5806 5801 5796 5792 5788 5783 5780 5776 5773 5771 5768 5766 5764 5763 5763 5763 5764 5766 5768 5771 5773 5777 5781 5785 5789 5794 5799 5803 5808 5813 5817 5822 5827 5831 5835 5839 5843 5848
5829 5825 5820 5815 5810 5806 5801 5796 5791 5787 5783 5779 5775 5771 5768 5765 5763 5760 5759 5758 5757 5758 5759 5761 5763 5765 5768 5771 5775 5779 5784 5788 5793 5798 5803 5808 5813 5817 5822 5826 5830 5834 5839
5830 5825 5820 5816 5811 5806 5801 5796 5792 5787 5783 5778 5774 5771 5767 5764 5761 5758 5755 5753 5752 5752 5753 5754 5756 5757 5760 5762 5765 5769 5774 5779 5783 5788 5793 5798 5803 5808 5812 5817 5822 5826 5831
5830 5826 5821 5817 5812 5807 5802 5797 5793 5788 5783 5779 5775 5771 5767 5763 5759 5756 5753 5750 5749 5748 5748 5749 5749 5750 5752 5754 5756 5760 5764 5769 5773 5778 5783 5788 5793 5798 5803 5808 5813 5818 5822
5831 5827 5822 5818 5813 5809 5804 5799 5794 5789 5785 5780 5776 5771 5767 5763 5759 5755 5752 5749 5747 5746 5745 5744 5744 5744 5745 5747 5749 5751 5755 5759 5764 5769 5774 5779 5784 5788 5793 5798 5803 5808 5814
5832 5828 5824 5819 5815 5810 5805 5800 5795 5791 5786 5781 5777 5772 5767 5763 5759 5755 5752 5749 5746 5743 5742 5741 5740 5739 5740 5741 5742 5744 5747 5751 5755 5760 5764 5769 5774 5779 5784 5788 5793 5798 5804
5833 5829 5825 5821 5816 5812 5807 5802 5797 5792 5787 5783 5778 5773 5768 5764 5760 5756 5752 5748 5745 5742 5739 5738 5736 5735 5735 5735 5736 5737 5740 5743 5747 5751 5755 5759 5765 5769 5774 5778 5783 5789 5794
5835 5831 5826 5822 5818 5814 5809 5804 5799 5794 5789 5784 5779 5774 5769 5765 5760 5756 5752 5748 5744 5741 5738 5735 5733 5732 5731 5731 5731 5732 5734 5736 5740 5743 5747 5751 5755 5759 5764 5769 5774 5779 5784
5836 5832 5828 5824 5820 5815 5811 5806 5801 5796 5791 5786 5781 5776 5771 5766 5761 5757 5752 5748 5744 5740 5737 5734 5731 5729 5728 5727 5726 5727 5728 5730 5732 5736 5739 5742 5746 5751 5755 5760 5765 5770 5775
5837 5833 5829 5825 5821 5817 5813 5808 5803 5798 5793 5788 5783 5778 5773 5767 5762 5758 5753 5748 5744 5739 5735 5732 5729 5726 5724 5722 5722 5722 5722 5724 5726 5729 5732 5735 5739 5743 5747 5752 5756 5761 5767
5839 5835 5831 5827 5823 5819 5814 5810 5805 5800 5795 5790 5785 5780 5774 5769 5764 5758 5753 5748 5743 5739 5734 5730 5726 5723 5720 5718 5717 5717 5717 5718 5720 5723 5725 5728 5732 5735 5739 5744 5748 5754 5759
5840 5836 5832 5828 5824 5820 5816 5812 5807 5802 5797 5792 5787 5781 5776 5770 5765 5759 5754 5749 5743 5738 5733 5729 5724 5721 5717 5714 5713 5712 5712 5713 5715 5717 5719 5722 5725 5729 5732 5737 5741 5746 5751
5841 5837 5833 5829 5825 5821 5817 5813 5808 5804 5799 5794 5788 5783 5777 5771 5766 5760 5754 5749 5744 5738 5733 5727 5722 5718 5714 5711 5709 5707 5707 5708 5710 5711 5714 5716 5719 5723 5727 5731 5735 5739 5745
5841 5838 5834 5830 5826 5822 5818 5814 5810 5805 5800 5795 5790 5785 5779 5773 5767 5761 5756 5750 5744 5738 5732 5727 5721 5716 5712 5708 5706 5704 5704 5704 5705 5707 5709 5711 5714 5718 5721 5725 5730 5734 5739
5841 5838 5834 5831 5827 5823 5819 5815 5811 5806 5802 5797 5792 5786 5781 5775 5769 5763 5757 5751 5745 5739 5733 5727 5721 5716 5711 5707 5704 5702 5701 5701 5702 5703 5705 5707 5710 5713 5717 5721 5726 5730 5735
5840 5837 5834 5830 5827 5823 5819 5815 5811 5807 5802 5798 5793 5787 5782 5777 5771 5765 5759 5753 5747 5741 5734 5728 5722 5716 5711 5707 5704 5702 5700 5700 5700 5701 5702 5704 5707 5710 5714 5718 5723 5727 5732
5838 5835 5832 5829 5826 5823 5819 5815 5811 5807 5803 5798 5793 5789 5783 5778 5773 5767 5761 5755 5749 5743 5737 5730 5724 5719 5714 5710 5706 5703 5701 5700 5699 5699 5700 5702 5705 5708 5712 5717 5721 5725 5730
5836 5833 5830 5827 5824 5821 5818 5814 5811 5807 5803 5798 5794 5789 5784 5779 5774 5769 5764 5758 5752 5746 5739 5733 5728 5722 5717 5713 5709 5705 5703 5701 5700 5700 5701 5702 5704 5707 5711 5715 5719 5723 5728
5832 5830 5827 5824 5822 5818 5815 5812 5809 5805 5802 5798 5794 5790 5785 5780 5776 5771 5765 5760 5755 5749 5743 5737 5732 5726 5721 5716 5712 5709 5706 5704 5703 5702 5702 5703 5705 5708 5712 5715 5719 5723 5727
5828 5826 5823 5821 5818 5815 5812 5809 5806 5803 5800 5796 5793 5789 5785 5781 5776 5772 5767 5762 5757 5752 5747 5741 5736 5731 5726 5721 5716 5713 5710 5707 5706 5705 5706 5706 5708 5710 5713 5716 5719 5723 5727
5823 5821 5818 5816 5814 5811 5808 5806 5803 5800 5797 5794 5791 5787 5784 5780 5776 5772 5768 5763 5759 5754 5749 5744 5739 5734 5730 5725 5721 5717 5714 5712 5710 5709 5709 5710 5711 5713 5716 5718 5721 5724 5727